Flag for U.S.A. Weather past 2 weeks in Clearwater, Florida, U.S.A.

Now
83 °F

Scattered clouds.


Feels Like: 91 °F
Forecast: 78 / 82 °F
Wind: 9 mph from South

Location: St. Petersburg / Clearwater International Airport

Current Time: Jul 31, 2015 at 9:55:23 AM

Latest Report: Jul 31, 2015 at 8:53 AM


Visibility: 10 mi

Pressure: 29.99 "Hg

Humidity: 79%

Dew point: 76 °F

Location of ClearwaterLocation

Historic Weather in Clearwater — Graph

°F

Clearwater temperature yesterday

Maximum temperature yesterday: 88 °F (at 11:53 AM)
Minimum temperature yesterday: 75 °F (at 4:53 AM)
Average temperature yesterday: 80 °F

Past Weeks' High & Low Weather Summary

 TemperatureHumidityPressure
High90 °F (Jul 23, 11:53 AM)100% (Jul 24, 12:02 PM)30.07 "Hg (Jul 24, 12:02 PM)
Low74 °F (Jul 29, 2:00 PM)59% (Jul 19, 11:00 AM)29.85 "Hg (Jul 26, 5:53 AM)
Average81 °F85%29.97 "Hg
* Reported Jul 16 8:53 AM — Jul 31 8:53 AM, Clearwater, Weather by CustomWeather, © 2015

Note: Actual official high and low records may vary slightly from our data, if they occured in-between our weather recording intervals... More about our weather records

Advertising

Clearwater weather history for previous 24 hours

 ConditionsComfort  
Time TempWeatherWind HumidityBarometerVisibility
8:53 AM
Fri, Jul 31
83 °FScattered clouds.9 mph79%29.99 "Hg10 mi
7:53 AM79 °FScattered clouds.5 mph90%29.98 "Hg10 mi
6:53 AM76 °FClear.6 mph94%29.96 "Hg10 mi
5:53 AM76 °FClear.No wind94%29.95 "Hg10 mi
4:53 AM76 °FClear.5 mph94%29.95 "Hg10 mi
3:53 AM77 °FPassing clouds.5 mph85%29.96 "Hg10 mi
2:53 AM78 °FClear.7 mph90%29.96 "Hg10 mi
1:53 AM78 °FPassing clouds.5 mph93%29.97 "Hg10 mi
12:53 AM78 °FPartly cloudy.5 mph93%29.99 "Hg10 mi
11:53 PM
Thu, Jul 30
78 °FClear.7 mph90%30.01 "Hg10 mi
10:53 PM77 °FPassing clouds.3 mph90%30.01 "Hg10 mi
9:53 PM77 °FClear.7 mph90%29.98 "Hg10 mi
8:53 PM75 °FBroken clouds.5 mph90%29.97 "Hg10 mi
7:53 PM76 °FLight rain. Mostly cloudy.14 mph88%29.98 "Hg9 mi
6:53 PM76 °FLight rain. Fog.8 mph91%29.96 "Hg3 mi
4:53 PM88 °FBroken clouds.15 mph59%29.94 "Hg10 mi
3:53 PM87 °FScattered clouds.13 mph65%29.95 "Hg10 mi
2:53 PM88 °FScattered clouds.14 mph65%29.97 "Hg10 mi
1:53 PM87 °FScattered clouds.14 mph67%29.99 "Hg10 mi
12:53 PM86 °FPassing clouds.10 mph70%30.00 "Hg10 mi
11:53 AM88 °FScattered clouds.12 mph61%30.01 "Hg10 mi
10:53 AM85 °FPassing clouds.13 mph80%30.01 "Hg10 mi
9:53 AM85 °FScattered clouds.8 mph80%30.00 "Hg10 mi
Weather by CustomWeather, © 2015

See weather overviewHow to use our weather pages